Flag for U.S.A. Weather past 2 weeks in New Haven, Connecticut, U.S.A.

Now
51 °F

Clear.


Feels Like: 51 °F
Forecast: 47 / 66 °F
Wind: No wind

Location: Tweed-New Haven Airport

Current Time: Jun 2, 2015 at 11:53:07 PM

Latest Report: Jun 2, 2015 at 10:53 PM


Visibility: 10 mi

Pressure: 30.19 "Hg

Humidity: 92%

Dew point: 49 °F

Location of New HavenLocation

Historic Weather in New Haven — Graph

°F

New Haven temperature yesterday

Maximum temperature yesterday: 56 °F (at 1:53 PM)
Minimum temperature yesterday: 49 °F (at 9:53 PM)
Average temperature yesterday: 53 °F

Past Weeks' High & Low Weather Summary

 TemperatureHumidityPressure
High79 °F (May 31, 1:53 PM)100% (May 19, 10:53 PM)30.40 "Hg (May 19, 10:53 PM)
Low47 °F (May 23, 5:53 AM)26% (May 22, 6:53 PM)29.77 "Hg (May 19, 6:53 PM)
Average61 °F73%30.12 "Hg
* Reported May 18 9:53 PM — Jun 2 9:53 PM, New Haven, Weather by CustomWeather, © 2015

Note: Actual official high and low records may vary slightly from our data, if they occured in-between our weather recording intervals... More about our weather records

Advertising

New Haven weather history for previous 24 hours

 ConditionsComfort  
Time TempWeatherWind HumidityBarometerVisibility
9:53 PM
Tue, Jun 2
52 °FPassing clouds.No wind93%30.18 "Hg10 mi
8:53 PM52 °FPartly sunny.5 mph89%30.16 "Hg10 mi
7:53 PM53 °FBroken clouds.6 mph86%30.16 "Hg10 mi
6:53 PM53 °FMostly cloudy.6 mph89%30.15 "Hg10 mi
5:53 PM53 °FLight rain. Mostly cloudy.8 mph89%30.13 "Hg10 mi
4:53 PM53 °FLight rain. Mostly cloudy.9 mph89%30.13 "Hg10 mi
3:53 PM54 °FLight rain. Mostly cloudy.12 mph86%30.13 "Hg10 mi
3:00 PM53 °FLight rain. More clouds than sun.8 mph89%30.14 "Hg7 mi
1:53 PM52 °FOvercast.13 mph86%30.16 "Hg10 mi
12:53 PM52 °FMostly cloudy.12 mph86%30.15 "Hg10 mi
11:53 AM52 °FMostly cloudy.13 mph86%30.15 "Hg10 mi
10:59 AM51 °FMostly cloudy.12 mph89%30.15 "Hg10 mi
9:53 AM50 °FMostly cloudy.9 mph89%30.14 "Hg7 mi
8:53 AM49 °FLight rain. Mostly cloudy.10 mph93%30.14 "Hg7 mi
7:53 AM49 °FMostly cloudy.10 mph93%30.12 "Hg10 mi
6:53 AM49 °FLight rain. Fog.12 mph90%30.11 "Hg3 mi
5:53 AM49 °FLight rain. Fog.12 mph90%30.11 "Hg2 mi
4:53 AM49 °FOvercast.6 mph93%30.12 "Hg10 mi
3:53 AM49 °FLight rain. Overcast.9 mph93%30.12 "Hg9 mi
2:53 AM49 °FLight rain. Overcast.8 mph93%30.13 "Hg8 mi
1:53 AM49 °FLight rain. Overcast.9 mph93%30.14 "Hg10 mi
12:53 AM48 °FLight rain. Overcast.9 mph96%30.16 "Hg7 mi
Weather by CustomWeather, © 2015

See weather overviewHow to use our weather pages